TAM3821 SBCT-SBSP

Flight info

Callsign TAM3821
Flight time 0h 39m
Altitude 27000
Route EDVEB UM548 DOSMU DCT ANISE
Aircraft A319/M-SDE3FGHIRWY/LB1

Departure

Time 2026-05-03 23:29
Airport Curitiba-Afonso Pena International Airport (SBCT)

Arrival

Time 2026-05-04 00:09
Airport Congonhas–Deputado Freitas Nobre Airport (SBSP)
Time Latitude Longitude Altitude Speed Heading
2026-05-03 23:12 -25.53672 -49.17110 2993 ft 0 kts 212°
2026-05-03 23:19 -25.53671 -49.17110 2993 ft 1 kts 212°
2026-05-03 23:20 -25.53651 -49.17094 2993 ft 4 kts 222°
2026-05-03 23:20 -25.53634 -49.17072 2992 ft 4 kts 245°
2026-05-03 23:20 -25.53630 -49.17048 2990 ft 4 kts 302°
2026-05-03 23:20 -25.53646 -49.17028 2990 ft 4 kts 314°
2026-05-03 23:21 -25.53660 -49.17012 2990 ft 0 kts 314°
2026-05-03 23:23 -25.53659 -49.17013 2990 ft 1 kts 315°
2026-05-03 23:23 -25.53650 -49.17023 2990 ft 2 kts 316°
2026-05-03 23:23 -25.53629 -49.17041 2990 ft 5 kts 332°
2026-05-03 23:23 -25.53584 -49.17021 2991 ft 9 kts 32°
2026-05-03 23:24 -25.53533 -49.17034 2991 ft 9 kts 326°
2026-05-03 23:24 -25.53484 -49.17086 2991 ft 11 kts 310°
2026-05-03 23:24 -25.53439 -49.17138 2991 ft 8 kts 313°
2026-05-03 23:24 -25.53394 -49.17189 2991 ft 7 kts 315°
2026-05-03 23:25 -25.53353 -49.17237 2993 ft 10 kts 314°
2026-05-03 23:25 -25.53310 -49.17284 2994 ft 10 kts 315°
2026-05-03 23:25 -25.53252 -49.17348 2993 ft 14 kts 315°
2026-05-03 23:25 -25.53186 -49.17330 2993 ft 13 kts 45°
2026-05-03 23:26 -25.53107 -49.17278 2993 ft 11 kts 333°
2026-05-03 23:26 -25.53057 -49.17344 2993 ft 14 kts 315°
2026-05-03 23:26 -25.52974 -49.17434 2993 ft 20 kts 315°
2026-05-03 23:26 -25.52856 -49.17564 2988 ft 28 kts 315°
2026-05-03 23:27 -25.52729 -49.17708 2988 ft 21 kts 315°
2026-05-03 23:27 -25.52611 -49.17839 2988 ft 18 kts 315°
2026-05-03 23:27 -25.52523 -49.17938 2992 ft 20 kts 315°
2026-05-03 23:27 -25.52411 -49.18063 2993 ft 26 kts 314°
2026-05-03 23:28 -25.52296 -49.18194 2997 ft 21 kts 314°
2026-05-03 23:28 -25.52204 -49.18256 2996 ft 14 kts 286°
2026-05-03 23:28 -25.52227 -49.18269 2995 ft 3 kts 139°
2026-05-03 23:28 -25.52256 -49.18238 2996 ft 12 kts 135°
2026-05-03 23:29 -25.52419 -49.18056 2993 ft 68 kts 135°
2026-05-03 23:29 -25.52920 -49.17495 2992 ft 133 kts 134°
2026-05-03 23:29 -25.53602 -49.16738 3509 ft 138 kts 134°
2026-05-03 23:29 -25.54304 -49.15965 3940 ft 153 kts 131°
2026-05-03 23:30 -25.55017 -49.14994 4186 ft 173 kts 110°
2026-05-03 23:30 -25.55119 -49.13596 4435 ft 197 kts 85°
2026-05-03 23:30 -25.54992 -49.11986 4849 ft 222 kts 83°
2026-05-03 23:30 -25.54823 -49.10190 5311 ft 247 kts 83°
2026-05-03 23:31 -25.54650 -49.08233 5990 ft 263 kts 83°
2026-05-03 23:31 -25.54484 -49.06187 6835 ft 272 kts 84°
2026-05-03 23:31 -25.54328 -49.04067 7641 ft 280 kts 85°
2026-05-03 23:31 -25.54182 -49.01888 8446 ft 288 kts 86°
2026-05-03 23:32 -25.54044 -48.99651 9263 ft 295 kts 86°
2026-05-03 23:32 -25.53906 -48.97365 10126 ft 300 kts 87°
2026-05-03 23:32 -25.53764 -48.95000 10591 ft 318 kts 86°
2026-05-03 23:32 -25.53539 -48.92487 10999 ft 335 kts 79°
2026-05-03 23:33 -25.52993 -48.89956 11659 ft 341 kts 76°
2026-05-03 23:33 -25.52425 -48.87389 12370 ft 346 kts 76°
2026-05-03 23:33 -25.51855 -48.84787 13080 ft 350 kts 76°
2026-05-03 23:33 -25.51282 -48.82153 13751 ft 355 kts 76°
2026-05-03 23:34 -25.50698 -48.79477 14382 ft 360 kts 75°
2026-05-03 23:34 -25.50104 -48.76764 14954 ft 365 kts 76°
2026-05-03 23:34 -25.49501 -48.74011 15523 ft 371 kts 76°
2026-05-03 23:34 -25.48889 -48.71217 16080 ft 376 kts 76°
2026-05-03 23:35 -25.48266 -48.68383 16639 ft 382 kts 76°
2026-05-03 23:35 -25.47631 -48.65510 17200 ft 387 kts 76°
2026-05-03 23:35 -25.46993 -48.62637 17724 ft 392 kts 76°
2026-05-03 23:35 -25.46339 -48.59685 18291 ft 398 kts 76°
2026-05-03 23:36 -25.45678 -48.56701 18797 ft 403 kts 76°
2026-05-03 23:36 -25.45010 -48.53675 19279 ft 407 kts 76°
2026-05-03 23:36 -25.44334 -48.50614 19769 ft 412 kts 76°
2026-05-03 23:36 -25.43649 -48.47520 20271 ft 416 kts 76°
2026-05-03 23:37 -25.42951 -48.44386 20761 ft 421 kts 76°
2026-05-03 23:37 -25.42249 -48.41231 21242 ft 426 kts 76°
2026-05-03 23:37 -25.41538 -48.38035 21731 ft 430 kts 76°
2026-05-03 23:37 -25.40816 -48.34805 22221 ft 434 kts 76°
2026-05-03 23:38 -25.40086 -48.31545 22703 ft 439 kts 76°
2026-05-03 23:38 -25.39347 -48.28260 23183 ft 443 kts 76°
2026-05-03 23:38 -25.38603 -48.24935 23658 ft 448 kts 76°
2026-05-03 23:38 -25.37852 -48.21569 24076 ft 452 kts 76°
2026-05-03 23:39 -25.37094 -48.18180 24455 ft 457 kts 76°
2026-05-03 23:39 -25.36324 -48.14756 24851 ft 461 kts 75°
2026-05-03 23:39 -25.35544 -48.11302 25237 ft 465 kts 75°
2026-05-03 23:39 -25.34757 -48.07827 25619 ft 469 kts 75°
2026-05-03 23:40 -25.33959 -48.04308 25999 ft 473 kts 75°
2026-05-03 23:40 -25.33159 -48.00767 26384 ft 477 kts 75°
2026-05-03 23:40 -25.32360 -47.97190 26748 ft 482 kts 75°
2026-05-03 23:40 -25.31624 -47.93567 27105 ft 484 kts 77°
2026-05-03 23:41 -25.30959 -47.89920 27219 ft 481 kts 77°
2026-05-03 23:41 -25.30352 -47.86344 27240 ft 468 kts 78°
2026-05-03 23:41 -25.29777 -47.82850 27237 ft 456 kts 79°
2026-05-03 23:41 -25.29208 -47.79449 27236 ft 445 kts 78°
2026-05-03 23:42 -25.28633 -47.76117 27240 ft 438 kts 77°
2026-05-03 23:42 -25.28042 -47.72810 27228 ft 438 kts 77°
2026-05-03 23:42 -25.27446 -47.69513 27251 ft 438 kts 77°
2026-05-03 23:42 -25.26854 -47.66211 27245 ft 438 kts 77°
2026-05-03 23:43 -25.26257 -47.62913 27238 ft 437 kts 77°
2026-05-03 23:43 -25.25655 -47.59625 27229 ft 439 kts 77°
2026-05-03 23:43 -25.25045 -47.56286 27240 ft 446 kts 77°
2026-05-03 23:43 -25.24431 -47.52919 27255 ft 447 kts 77°
2026-05-03 23:44 -25.23811 -47.49567 27227 ft 447 kts 74°
2026-05-03 23:44 -25.22849 -47.46317 27228 ft 444 kts 63°
2026-05-03 23:44 -25.21401 -47.43323 27248 ft 438 kts 51°
2026-05-03 23:44 -25.19580 -47.40669 27245 ft 432 kts 43°
2026-05-03 23:45 -25.17645 -47.38109 27216 ft 434 kts 44°
2026-05-03 23:45 -25.15739 -47.35583 27250 ft 434 kts 43°
2026-05-03 23:45 -25.13802 -47.33021 27229 ft 436 kts 43°
2026-05-03 23:45 -25.11867 -47.30451 27229 ft 434 kts 44°
2026-05-03 23:46 -25.09943 -47.27893 27205 ft 431 kts 44°
2026-05-03 23:46 -25.08006 -47.25323 27196 ft 429 kts 44°
2026-05-03 23:46 -25.06091 -47.22792 27210 ft 431 kts 44°
2026-05-03 23:46 -25.04179 -47.20288 27210 ft 433 kts 43°
2026-05-03 23:47 -25.02241 -47.17731 27217 ft 435 kts 44°
2026-05-03 23:47 -25.00307 -47.15170 27235 ft 435 kts 44°
2026-05-03 23:47 -24.98378 -47.12609 27222 ft 435 kts 44°
2026-05-03 23:47 -24.96442 -47.10041 27224 ft 436 kts 43°
2026-05-03 23:48 -24.94499 -47.07479 27234 ft 436 kts 44°
2026-05-03 23:48 -24.92554 -47.04915 27254 ft 436 kts 44°
2026-05-03 23:48 -24.90600 -47.02360 27239 ft 437 kts 43°
2026-05-03 23:48 -24.88642 -46.99802 27249 ft 437 kts 44°
2026-05-03 23:49 -24.86702 -46.97249 27241 ft 435 kts 44°
2026-05-03 23:49 -24.84765 -46.94701 27222 ft 435 kts 44°
2026-05-03 23:49 -24.82820 -46.92151 27222 ft 435 kts 43°
2026-05-03 23:49 -24.80874 -46.89599 27192 ft 436 kts 44°
2026-05-03 23:50 -24.78927 -46.87038 27207 ft 435 kts 44°
2026-05-03 23:50 -24.77643 -46.85344 27213 ft 436 kts 44°
2026-05-03 23:50 -24.75020 -46.81917 27244 ft 446 kts 43°
2026-05-03 23:50 -24.72987 -46.79268 27241 ft 459 kts 44°
2026-05-03 23:51 -24.70901 -46.76532 27233 ft 469 kts 44°
2026-05-03 23:51 -24.68808 -46.73783 26546 ft 474 kts 45°
2026-05-03 23:51 -24.66660 -46.70972 25534 ft 486 kts 45°
2026-05-03 23:51 -24.65208 -46.69075 24982 ft 491 kts 46°
2026-05-03 23:52 -24.62928 -46.66291 24370 ft 487 kts 38°
2026-05-03 23:52 -24.59252 -46.63665 23895 ft 457 kts 17°
2026-05-03 23:52 -24.57292 -46.62905 23287 ft 445 kts
2026-05-03 23:52 -24.53302 -46.62514 22348 ft 419 kts 351°
2026-05-03 23:53 -24.50457 -46.62559 22171 ft 400 kts 352°
2026-05-03 23:53 -24.47746 -46.62572 21646 ft 391 kts 353°
2026-05-03 23:53 -24.45049 -46.62571 21066 ft 384 kts 353°
2026-05-03 23:53 -24.42409 -46.62564 20679 ft 375 kts 353°
2026-05-03 23:54 -24.39800 -46.62560 20298 ft 374 kts 353°
2026-05-03 23:54 -24.37204 -46.62559 19871 ft 374 kts 354°
2026-05-03 23:54 -24.35440 -46.62560 19563 ft 375 kts 354°
2026-05-03 23:54 -24.31999 -46.62560 19105 ft 371 kts 354°
2026-05-03 23:55 -24.30247 -46.62561 18766 ft 373 kts 355°
2026-05-03 23:55 -24.26848 -46.62560 18358 ft 367 kts 355°
2026-05-03 23:55 -24.25127 -46.62561 18066 ft 365 kts 355°
2026-05-03 23:55 -24.22596 -46.62566 17667 ft 362 kts 355°
2026-05-03 23:56 -24.20119 -46.62571 17286 ft 360 kts 355°
2026-05-03 23:56 -24.17590 -46.62575 16895 ft 358 kts 356°
2026-05-03 23:56 -24.15112 -46.62578 16511 ft 355 kts 356°
2026-05-03 23:56 -24.12648 -46.62579 16143 ft 353 kts 356°
2026-05-03 23:57 -24.10201 -46.62581 15744 ft 349 kts 356°
2026-05-03 23:57 -24.07789 -46.62582 15115 ft 345 kts 357°
2026-05-03 23:57 -24.05427 -46.62583 14530 ft 342 kts 357°
2026-05-03 23:57 -24.03022 -46.62583 14067 ft 341 kts 358°
2026-05-03 23:58 -24.00664 -46.62586 13699 ft 338 kts 358°
2026-05-03 23:58 -23.98317 -46.62590 13309 ft 336 kts 358°
2026-05-03 23:58 -23.95983 -46.62593 12925 ft 334 kts 358°
2026-05-03 23:58 -23.93667 -46.62594 12561 ft 332 kts 358°
2026-05-03 23:59 -23.91365 -46.62593 12196 ft 328 kts 358°
2026-05-03 23:59 -23.89095 -46.62593 11717 ft 326 kts 358°
2026-05-03 23:59 -23.86844 -46.62687 11243 ft 321 kts 349°
2026-05-03 23:59 -23.84729 -46.63345 10776 ft 315 kts 334°
2026-05-04 00:00 -23.82848 -46.64547 10490 ft 310 kts 325°
2026-05-04 00:00 -23.81085 -46.65789 10379 ft 301 kts 326°
2026-05-04 00:00 -23.79343 -46.66997 10231 ft 293 kts 326°
2026-05-04 00:00 -23.77608 -46.68195 9916 ft 289 kts 326°
2026-05-04 00:01 -23.75949 -46.69340 9419 ft 286 kts 326°
2026-05-04 00:01 -23.74279 -46.70493 9282 ft 283 kts 326°
2026-05-04 00:01 -23.72600 -46.71657 9180 ft 282 kts 327°
2026-05-04 00:01 -23.70965 -46.72792 8907 ft 282 kts 327°
2026-05-04 00:02 -23.69270 -46.73969 8618 ft 281 kts 327°
2026-05-04 00:02 -23.67619 -46.75114 8322 ft 281 kts 327°
2026-05-04 00:02 -23.65969 -46.76255 8030 ft 281 kts 328°
2026-05-04 00:02 -23.64314 -46.77398 7742 ft 281 kts 328°
2026-05-04 00:03 -23.62660 -46.78539 7474 ft 281 kts 328°
2026-05-04 00:03 -23.61013 -46.79676 7223 ft 280 kts 329°
2026-05-04 00:03 -23.59378 -46.80803 7083 ft 275 kts 331°
2026-05-04 00:03 -23.57622 -46.81442 6958 ft 262 kts
2026-05-04 00:04 -23.55917 -46.81009 6837 ft 251 kts 32°
2026-05-04 00:04 -23.54703 -46.79733 6700 ft 238 kts 58°
2026-05-04 00:04 -23.53859 -46.78280 6576 ft 223 kts 59°
2026-05-04 00:04 -23.53047 -46.76882 6446 ft 208 kts 59°
2026-05-04 00:05 -23.52307 -46.75618 6260 ft 195 kts 60°
2026-05-04 00:05 -23.51830 -46.74246 5726 ft 197 kts 91°
2026-05-04 00:05 -23.52292 -46.72905 5299 ft 190 kts 131°
2026-05-04 00:05 -23.53354 -46.72081 4863 ft 182 kts 146°
2026-05-04 00:06 -23.54402 -46.71365 4457 ft 172 kts 145°
2026-05-04 00:06 -23.55381 -46.70690 4182 ft 159 kts 145°
2026-05-04 00:06 -23.56251 -46.70089 3964 ft 140 kts 146°
2026-05-04 00:06 -23.57042 -46.69540 3819 ft 131 kts 147°
2026-05-04 00:07 -23.57796 -46.69019 3635 ft 127 kts 146°
2026-05-04 00:07 -23.58538 -46.68503 3477 ft 126 kts 148°
2026-05-04 00:07 -23.59273 -46.67995 3298 ft 126 kts 145°
2026-05-04 00:07 -23.60004 -46.67486 3108 ft 124 kts 148°
2026-05-04 00:08 -23.60724 -46.66987 2919 ft 124 kts 147°
2026-05-04 00:08 -23.61399 -46.66520 2768 ft 123 kts 148°
2026-05-04 00:08 -23.62094 -46.66041 2630 ft 123 kts 147°
2026-05-04 00:08 -23.62722 -46.65608 2607 ft 83 kts 147°
2026-05-04 00:09 -23.63033 -46.65394 2610 ft 36 kts 148°
2026-05-04 00:09 -23.63173 -46.65389 2605 ft 15 kts 213°
2026-05-04 00:09 -23.63156 -46.65452 2602 ft 10 kts 320°
2026-05-04 00:09 -23.63080 -46.65504 2602 ft 15 kts 328°
2026-05-04 00:10 -23.63002 -46.65539 2603 ft 9 kts 353°
2026-05-04 00:10 -23.62951 -46.65558 2603 ft 9 kts 330°
2026-05-04 00:10 -23.62903 -46.65589 2603 ft 9 kts 328°
2026-05-04 00:10 -23.62838 -46.65637 2603 ft 11 kts 326°
2026-05-04 00:11 -23.62782 -46.65673 2603 ft 10 kts 330°
2026-05-04 00:11 -23.62742 -46.65708 2602 ft 4 kts 284°
2026-05-04 00:11 -23.62756 -46.65738 2601 ft 6 kts 226°
2026-05-04 00:11 -23.62776 -46.65768 2601 ft 3 kts 238°
2026-05-04 00:12 -23.62784 -46.65781 2601 ft 0 kts 237°